Showing default

KUIPER-00268, 67790

Orbit data source: Space-Track

KUIPER-00268, 67790 is a payload satellite owned by Kuiper Systems (US) in LEO that was launched on Thu, 12 Feb 2026 UTC via an ARIANE 64 launch vehicle from the French Guiana (FRGUI). Payload-class satellites include a variety of spacecraft equipped with specific instruments for various scientific and technological missions. These include communications satellites like Starlink; space stations such as the ISS; scientific satellites like the Hubble; Earth observation satellites from companies like Planet Labs, Umbra, and HawkEye 360; GPS; miniature CubeSats for education and research; and military/defense satellites.

Loading next visibility...
Identifier
67790, 2026-030AC
Orbit
LEO
Country
Flag of USUS
Related business
Manufacturer
Kuiper Systems
Mission
Operational Commercial Communications
Bus & Motor
KUIPER, Unknown motor
Mass
~490 kg wet, ~490 kg dry
Launch date (UTC)
2026-02-12 (4 months ago)
Launch vehicle
ARIANE 64
Launch site
French Guiana (FRGUI)
Object type
Payload
Rocket body
Debris
Shape & HBR
Box + 2 Pan, 3.4 m
Radar Cross Section
2.326 m², Large (>1 m²)

Expand to show TLE details & history
Last TLE update: 22 hours ago

TLE from 22 hours ago
0 KUIPER-00268
1 67790U 26030AC  26170.95001972 -.00001758  00000-0 -20161-3 0  9995
2 67790  51.9053  98.4348 0001174 108.0399 252.0691 14.79951887 20638
Epoch: 2026-06-19T22:48Z
TLE epoch observation values (Epoch: 2026-06-19T22:48:01.703Z)
Latitude
-0.00007°
Longitude
-151.744°
Altitude
630.477 km
Speed
7.544 km/s
True Right ascension
06h 33m 44s
True Declination
0° 00' 00"
Sunlit
Object was in daylight at epoch
Visualization orbit readout
Latitude
Unknown
Longitude
Unknown
Altitude
Unknown
Speed
Unknown
Apparent Right ascension
Unknown
Apparent Declination
Unknown
Sunlit
N/A
Visualization observer readout
Local Sidereal Time
07:14:05
Azimuth
Unknown
Elevation
Unknown
Doppler factor
Unknown
Orbital elements
Apogee altitude
630.749 km
Perigee altitude
629.104 km
Semi-major axis
7,008.063 km
Eccentricity
0.00012
Inclination
51.9053°
RAAN
98.4348°
Arg. of periapsis
108.0399°
True anomaly
252.0563°
Mean anomaly
252.0691°
Eccentric anomaly
252.0627°
Mean motion
3.69953 °/min
Orbital period
97.31 mins
BSTAR
-0.00020161
Loading maneuver chart data...
Computing Atmospheric mass density...
Loading historical data...
Loading historical data...
Loading historical data...
Loading historical data...
Loading historical data...
Loading historical data...
Loading historical data...

Documentation

Showing up to 5 results
|